KINEIS-5C

Last updated on Sun Apr 12 2026 00:02:47 GMT+0000 (Coordinated Universal Time)

1 62081U 24219A 26101.52425072 -.00000658 00000+0 -96337-4 0 9994 2 62081 97.9292 262.2242 0004651 99.9017 260.2716 14.72332715 73940
UTC large
Height (km)
Speed (km/s)
/
Latitude / Longitude
Inclination (degrees)
Orbital Period (minutes)
Azimuth
Elevation
Range (km)
Doppler Factor

Next 0 passes for location: London (51.5072 / 0.1276)

Sorry there are no passes over London.
KINEIS-5C